Greenville, AL

10:30 AM CDT on July 29, 2016 (GMT -0500)
Greenville Municipal

Weather History for KPRN - January, 2013

Change the Weather History Date:

Wednesday, January 2, 2013

  Actual Average Record
Temperature  
Mean Temperature 48 °F -  
Max Temperature 53 °F 58 °F 77 °F (1966)
Min Temperature 42 °F 37 °F 12 °F (1928)
Degree Days  
Heating Degree Days 18    
Moisture  
Dew Point 44 °F    
Average Humidity 83    
Maximum Humidity 94    
Minimum Humidity 71    
Precipitation  
Precipitation 0.01 in - - ()
Sea Level Pressure  
Sea Level Pressure 30.09 in    
Wind  
Wind Speed 9 mph (NNW)    
Max Wind Speed 14 mph    
Max Gust Speed 22 mph    
Visibility 10 miles    
Events Rain    
Averages and records for this station are not official NWS values.
T = Trace of Precipitation, MM = Missing Value Source: NWS Daily Summary

Daily Weather History Graph

Daily Weather History Graph

Search for Another Location

Airport or City:

Trip Planner

Search our weather history database for the weather conditions in past years. The results will help you decide how hot, cold, wet, or windy it might be!

Date:

Astronomy

Jan. 02, 2013 Rise Set
Actual Time 6:46 AM CST 4:54 PM CST
Civil Twilight 6:20 AM CST 5:21 PM CST
Nautical Twilight 5:49 AM CST 5:51 PM CST
Astronomical Twilight 5:20 AM CST 6:21 PM CST
Moon 10:04 PM CST (1/2) 9:47 AM CST (1/2)
Length of Visible Light 11h 01m
Length of Day
10h 07m
Waning Gibbous, 75% of the Moon is Illuminated
Jan 2
Waning Gibbous
Jan 4
Last Quarter
Jan 11
New
Jan 18
First Quarter
Jan 26
Full

Hourly Weather History & Observations

Time (CST) Temp. Windchill Dew Point Humidity Pressure Visibility Wind Dir Wind Speed Gust Speed Precip Events Conditions
12:09 AM 53.6 °F - 51.8 °F 94% 30.01 in 10.0 mi NNW 9.2 mph 21.9 mph 0.00 in   Overcast
12:29 AM 53.6 °F - 51.8 °F 94% 29.99 in 10.0 mi North 11.5 mph - 0.00 in   Overcast
12:56 AM 53.1 °F - 51.1 °F 93% 29.99 in 10.0 mi North 6.9 mph - 0.00 in   Overcast
1:01 AM 53.6 °F - 51.8 °F 94% 29.99 in 10.0 mi North 8.1 mph - N/A   Overcast
1:08 AM 53.6 °F - 51.8 °F 94% 30.01 in 10.0 mi NNW 10.4 mph - N/A   Overcast
1:17 AM 53.6 °F - 50.0 °F 88% 30.00 in 10.0 mi NNW 9.2 mph - N/A   Overcast
2:41 AM 51.8 °F - 48.2 °F 88% 30.03 in 10.0 mi NNW 11.5 mph - N/A   Overcast
3:56 AM 51.1 °F - 48.0 °F 89% 30.04 in 10.0 mi NNW 13.8 mph - N/A   Overcast
4:17 AM 50.0 °F - 46.4 °F 87% 30.04 in 10.0 mi North 10.4 mph - N/A   Overcast
4:29 AM 50.0 °F - 46.4 °F 87% 30.05 in 10.0 mi NNW 9.2 mph - N/A   Overcast
4:56 AM 50.0 °F - 46.9 °F 89% 30.04 in 10.0 mi North 8.1 mph - N/A   Overcast
5:19 AM 50.0 °F - 46.4 °F 87% 30.05 in 10.0 mi North 9.2 mph - N/A   Overcast
5:46 AM 48.2 °F - 46.4 °F 93% 30.05 in 10.0 mi North 5.8 mph - N/A   Mostly Cloudy
5:56 AM 48.9 °F - 46.0 °F 90% 30.06 in 10.0 mi NNW 6.9 mph - N/A   Overcast
6:56 AM 48.0 °F - 45.0 °F 89% 30.08 in 10.0 mi NNW 8.1 mph - N/A   Overcast
7:56 AM 48.0 °F - 44.1 °F 86% 30.10 in 10.0 mi North 6.9 mph - N/A   Overcast
8:56 AM 48.9 °F - 43.0 °F 80% 30.12 in 10.0 mi North 8.1 mph - N/A   Mostly Cloudy
9:56 AM 50.0 °F - 43.0 °F 77% 30.14 in 10.0 mi NNW 9.2 mph - N/A   Overcast
10:24 AM 51.8 °F - 42.8 °F 71% 30.13 in 10.0 mi North 9.2 mph - N/A   Overcast
10:56 AM 51.1 °F - 42.1 °F 71% 30.12 in 10.0 mi NW 8.1 mph - N/A   Mostly Cloudy
11:08 AM 51.8 °F - 42.8 °F 71% 30.13 in 10.0 mi NNW 8.1 mph - N/A   Mostly Cloudy
11:47 AM 51.8 °F - 42.8 °F 71% 30.11 in 10.0 mi North 8.1 mph - N/A   Scattered Clouds
11:56 AM 51.1 °F - 42.1 °F 71% 30.11 in 10.0 mi North 10.4 mph - N/A   Partly Cloudy
12:44 PM 50.0 °F - 42.8 °F 76% 30.09 in 10.0 mi NW 5.8 mph - N/A   Mostly Cloudy
12:56 PM 50.0 °F - 42.1 °F 74% 30.08 in 10.0 mi NNW 5.8 mph - N/A   Mostly Cloudy
1:13 PM 51.8 °F - 42.8 °F 71% 30.08 in 10.0 mi North 8.1 mph - N/A   Scattered Clouds
1:25 PM 50.0 °F - 42.8 °F 76% 30.08 in 10.0 mi NW 8.1 mph - N/A   Mostly Cloudy
1:56 PM 51.1 °F - 42.1 °F 71% 30.07 in 10.0 mi North 6.9 mph - N/A   Mostly Cloudy
2:56 PM 50.0 °F - 42.1 °F 74% 30.08 in 10.0 mi North 9.2 mph - N/A   Mostly Cloudy
3:56 PM 50.0 °F - 42.1 °F 74% 30.08 in 10.0 mi NNW 5.8 mph - N/A   Mostly Cloudy
4:21 PM 48.2 °F - 42.8 °F 82% 30.11 in 10.0 mi NNW 6.9 mph - N/A   Overcast
4:56 PM 46.9 °F - 42.1 °F 83% 30.13 in 10.0 mi WNW 9.2 mph - N/A   Overcast
5:33 PM 46.4 °F 42.4 °F 41.0 °F 81% 30.14 in 10.0 mi NW 8.1 mph - 0.00 in   Overcast
5:56 PM 46.4 °F 42.4 °F 41.0 °F 81% 30.16 in 10.0 mi NW 8.1 mph - 0.00 in   Overcast
6:08 PM 46.4 °F 42.4 °F 41.0 °F 81% 30.16 in 10.0 mi NW 8.1 mph - N/A   Overcast
6:56 PM 46.0 °F 41.4 °F 39.9 °F 79% 30.17 in 10.0 mi NNW 9.2 mph - N/A   Overcast
7:41 PM 44.6 °F 38.8 °F 39.2 °F 81% 30.17 in 10.0 mi NNW 11.5 mph - N/A   Overcast
7:56 PM 45.0 °F 41.8 °F 39.9 °F 82% 30.17 in 10.0 mi NNW 5.8 mph - N/A   Overcast
8:56 PM 44.1 °F 40.8 °F 39.0 °F 82% 30.16 in 10.0 mi North 5.8 mph - N/A   Overcast
9:05 PM 44.6 °F 42.2 °F 39.2 °F 81% 30.16 in 10.0 mi North 4.6 mph - N/A   Overcast
9:56 PM 43.0 °F 39.5 °F 39.0 °F 86% 30.18 in 9.0 mi NW 5.8 mph - 0.00 in Rain Light Rain
10:56 PM 42.1 °F 38.4 °F 39.9 °F 92% 30.17 in 7.0 mi NNW 5.8 mph - 0.01 in Rain Light Rain
11:14 PM 42.8 °F 37.5 °F 39.2 °F 87% 30.17 in 7.0 mi NNW 9.2 mph - 0.00 in Rain Light Rain
11:56 PM 42.1 °F 37.1 °F 39.9 °F 92% 30.17 in 7.0 mi NNW 8.1 mph - 0.00 in Rain Light Rain